Volver al catálogo

PSLV R/B

ActivoSSO
NORAD 28050·ROCKET BODY·🇮🇳 India

Lanzado Oct 17, 2003 desde Satish Dhawan Space Centre

Loading…

Próximos Pases (próximas 24 horas)

TLE

ActualizadoSource: Space-Track

Época: Sep 14, 2026, 22:54 UTC

1 28050U 03046B   26257.95470671  .00000036  00000-0  40300-4 0  9999
2 28050  99.0766 238.8437 0051006  17.4915 353.8079 14.17613366184813

Sigue PSLV R/B en tiempo real con AllMySat

Download on the App Store